User: anonymous   Login
Location: Azul
(36.7830°S, 59.8500°W)
Time: 00:50:09
(UTC-03:00)
Language:

RS-44 - Orbit

View from above orbital plane
View from above orbital plane
View from above satellite
View from above satellite

Ground track
Ground track

The orbit data is extracted from the following two-line orbital elements,

1 44909U 19096E   24262.45984520  .00000017  00000-0  22768-4 0  9991
2 44909  82.5222  42.7789 0217368 192.8785 166.6712 12.79734003220901
Epoch (UTC): 18 September 2024 11:02:10
Eccentricity: 0.0217368
inclination: 82.5222°
perigee height: 1175 km
apogee height: 1510 km
right ascension of ascending node: 42.7789°
argument of perigee: 192.8785°
revolutions per day: 12.79734003
mean anomaly at epoch: 166.6712°
orbit number at epoch: 22090

The dashed part of the orbit path shows where the satellite is in the earth's shadow,  

DLR